TimeCDT,TemperatureF,Dew PointF,Humidity,Sea Level PressureIn,VisibilityMPH,Wind Direction,Wind SpeedMPH,Gust SpeedMPH,PrecipitationIn,Events,Conditions,WindDirDegrees,DateUTC
12:53 AM,37.9,27.0,65,30.40,10.0,NNE,4.6,-,N/A,,Clear,20,2012-10-27 05:53:00
1:53 AM,37.9,27.0,65,30.39,10.0,North,4.6,-,N/A,,Clear,360,2012-10-27 06:53:00
2:53 AM,37.0,27.0,67,30.40,10.0,North,5.8,-,N/A,,Clear,360,2012-10-27 07:53:00
3:53 AM,36.0,26.1,67,30.38,10.0,NNE,5.8,-,N/A,,Clear,30,2012-10-27 08:53:00
4:53 AM,34.0,27.0,75,30.38,10.0,North,3.5,-,N/A,,Clear,360,2012-10-27 09:53:00
5:53 AM,33.1,27.0,78,30.39,10.0,Calm,Calm,-,N/A,,Clear,0,2012-10-27 10:53:00
6:53 AM,32.0,26.1,79,30.39,10.0,NNE,6.9,-,N/A,,Clear,30,2012-10-27 11:53:00
7:53 AM,33.1,26.1,75,30.40,10.0,North,4.6,-,N/A,,Clear,10,2012-10-27 12:53:00
8:53 AM,36.0,28.0,73,30.42,10.0,NNE,5.8,-,N/A,,Clear,20,2012-10-27 13:53:00
10:53 AM,44.1,28.0,53,30.42,10.0,NE,8.1,-,N/A,,Clear,40,2012-10-27 15:53:00
11:53 AM,46.9,28.0,48,30.40,10.0,Variable,5.8,-,N/A,,Clear,0,2012-10-27 16:53:00
1:53 PM,51.1,27.0,39,30.30,10.0,NNE,6.9,-,N/A,,Clear,20,2012-10-27 18:53:00
2:53 PM,53.1,26.1,35,30.28,10.0,NE,8.1,-,N/A,,Clear,50,2012-10-27 19:53:00
3:53 PM,54.0,26.1,34,30.26,10.0,Variable,5.8,-,N/A,,Clear,0,2012-10-27 20:53:00
4:53 PM,53.1,24.1,32,30.25,10.0,North,5.8,-,N/A,,Clear,10,2012-10-27 21:53:00
5:53 PM,50.0,25.0,38,30.25,10.0,North,3.5,-,N/A,,Clear,350,2012-10-27 22:53:00
6:53 PM,46.0,27.0,47,30.25,10.0,Calm,Calm,-,N/A,,Clear,0,2012-10-27 23:53:00
7:53 PM,39.9,28.0,63,30.26,10.0,North,3.5,-,N/A,,Clear,360,2012-10-28 00:53:00
8:53 PM,37.9,28.9,70,30.27,10.0,Calm,Calm,-,N/A,,Clear,0,2012-10-28 01:53:00
9:53 PM,41.0,27.0,57,30.28,10.0,NNE,3.5,-,N/A,,Clear,20,2012-10-28 02:53:00
11:53 PM,35.1,28.0,76,30.30,10.0,Calm,Calm,-,N/A,,Clear,0,2012-10-28 04:53:00